Weather History for Macomb, IL

Change the Weather History Date:

Monday, January 21, 2013

  Actual Average (KBRL) Record (KBRL)
Temperature  
Mean Temperature 8 °F 26 °F  
Max Temperature 13 °F 35 °F 67 °F (1957)
Min Temperature 4 °F 17 °F -22 °F (1970)
Degree Days  
Heating Degree Days 56 39  
Month to date heating degree days 819  
Since 1 July heating degree days 3005  
Cooling Degree Days 0 0  
Month to date cooling degree days 0  
Year to date cooling degree days 0  
Moisture  
Dew Point 0 °F    
Average Humidity 68    
Maximum Humidity 83    
Minimum Humidity 50    
Precipitation  
Precipitation 0.00 in 0.04 in 0.76 in (1958)
Month to date precipitation 0.86  
Year to date precipitation 0.86  
Sea Level Pressure  
Sea Level Pressure 30.35 in    
Wind  
Wind Speed 17 mph (WNW)    
Max Wind Speed 25 mph    
Max Gust Speed 32 mph    
Visibility 10 miles    
Events Snow    
T = Trace of Precipitation, MM = Missing Value Source: NWS Daily Summary

Daily Weather History Graph

Daily Weather History Graph

Search for Another Location

Airport:

Trip Planner

Search our weather history database for the weather conditions in past years. The results will help you decide how hot, cold, wet, or windy it might be!

Date:

Astronomy

Jan. 21, 2013 Rise Set
Actual Time 7:20 AM CST 5:07 PM CST
Civil Twilight 6:51 AM CST 5:37 PM CST
Nautical Twilight 6:17 AM CST 6:10 PM CST
Astronomical Twilight 5:45 AM CST 6:43 PM CST
Moon 12:47 PM CST (1/21) 2:49 AM CST (1/21)
Length of Visible Light 10h 46m
Length of Day
9h 47m
Waxing Gibbous, 75% of the Moon is Illuminated
Jan 21
Waxing Gibbous
Jan 26
Full
Feb 3
Last Quarter
Feb 10
New
Feb 17
First Quarter

Hourly Weather History & Observations

Time (CST) Temp. Windchill Dew Point Humidity Pressure Visibility Wind Dir Wind Speed Gust Speed Precip Events Conditions
12:15 AM 13.3 °F -1.8 °F 8.6 °F 82% 30.32 in 10.0 mi WNW 13.8 mph - N/A   Scattered Clouds
12:35 AM 13.5 °F -0.9 °F 8.8 °F 82% 30.32 in 10.0 mi WNW 12.7 mph - N/A   Mostly Cloudy
12:55 AM 13.6 °F -3.5 °F 8.6 °F 80% 30.31 in 10.0 mi NW 18.4 mph 24.2 mph N/A   Overcast
1:15 AM 13.3 °F -2.4 °F 8.4 °F 81% 30.32 in 10.0 mi WNW 15.0 mph 20.7 mph N/A   Overcast
1:35 AM 13.1 °F -2.6 °F 8.2 °F 81% 30.32 in 10.0 mi WNW 15.0 mph 19.6 mph N/A   Overcast
1:55 AM 13.1 °F -3.1 °F 8.1 °F 80% 30.32 in 10.0 mi WNW 16.1 mph - N/A   Overcast
2:15 AM 12.9 °F -3.9 °F 7.7 °F 80% 30.31 in 10.0 mi WNW 17.3 mph 21.9 mph N/A   Overcast
2:35 AM 12.6 °F -5.3 °F 7.3 °F 80% 30.31 in 10.0 mi NW 19.6 mph 25.3 mph N/A   Overcast
2:55 AM 12.6 °F -4.4 °F 8.4 °F 83% 30.31 in 10.0 mi WNW 17.3 mph - N/A Snow Light Snow
3:15 AM 11.3 °F -7.4 °F 5.0 °F 76% 30.30 in 10.0 mi WNW 20.7 mph 25.3 mph N/A   Scattered Clouds
3:35 AM 11.1 °F -5.7 °F 4.6 °F 75% 30.29 in 10.0 mi WNW 16.1 mph - N/A   Clear
3:55 AM 10.9 °F -6.5 °F 4.6 °F 76% 30.29 in 10.0 mi WNW 17.3 mph 20.7 mph N/A   Clear
4:15 AM 10.9 °F -5.9 °F 4.8 °F 76% 30.30 in 10.0 mi WNW 16.1 mph 21.9 mph N/A   Clear
4:35 AM 10.4 °F -8.2 °F 5.0 °F 79% 30.30 in 10.0 mi WNW 19.6 mph 26.5 mph N/A   Clear
4:55 AM 10.8 °F -6.7 °F 4.1 °F 75% 30.30 in 10.0 mi WNW 17.3 mph 26.5 mph N/A   Scattered Clouds
5:15 AM 10.4 °F -8.6 °F 4.1 °F 76% 30.30 in 10.0 mi WNW 20.7 mph 26.5 mph N/A   Overcast
5:35 AM 10.2 °F -8.9 °F 3.6 °F 74% 30.30 in 10.0 mi WNW 20.7 mph 25.3 mph N/A   Mostly Cloudy
5:55 AM 10.0 °F -8.6 °F 1.9 °F 70% 30.31 in 10.0 mi WNW 19.6 mph 27.6 mph N/A   Scattered Clouds
6:15 AM 9.3 °F -10.5 °F 0.9 °F 69% 30.31 in 10.0 mi WNW 21.9 mph 32.2 mph N/A   Clear
6:35 AM 8.6 °F -12.7 °F 0.3 °F 69% 30.31 in 10.0 mi WNW 25.3 mph 29.9 mph N/A   Clear
6:55 AM 8.2 °F -11.5 °F 0.1 °F 70% 30.31 in 10.0 mi WNW 20.7 mph 27.6 mph N/A   Scattered Clouds
7:15 AM 7.7 °F -11.7 °F -0.4 °F 70% 30.32 in 10.0 mi NW 19.6 mph - N/A   Clear
7:35 AM 7.2 °F -13.3 °F -1.1 °F 69% 30.33 in 10.0 mi NW 21.9 mph 28.8 mph N/A   Scattered Clouds
7:55 AM 6.8 °F -13.4 °F -0.4 °F 72% 30.33 in 10.0 mi NW 20.7 mph - N/A   Scattered Clouds
8:15 AM 6.8 °F -12.9 °F -0.4 °F 72% 30.33 in 10.0 mi NW 19.6 mph 27.6 mph N/A   Scattered Clouds
8:35 AM 6.6 °F -14.5 °F -0.6 °F 72% 30.34 in 10.0 mi NW 23.0 mph 29.9 mph N/A   Scattered Clouds
8:55 AM 7.0 °F -14.5 °F -1.1 °F 69% 30.34 in 10.0 mi WNW 24.2 mph 31.1 mph N/A   Scattered Clouds
9:15 AM 7.0 °F -13.6 °F -1.5 °F 68% 30.35 in 10.0 mi NW 21.9 mph 28.8 mph N/A   Mostly Cloudy
9:35 AM 7.7 °F -13.9 °F -1.5 °F 66% 30.36 in 10.0 mi NW 25.3 mph 32.2 mph N/A   Overcast
9:55 AM 7.7 °F -12.6 °F -0.4 °F 70% 30.37 in 5.0 mi WNW 21.9 mph - N/A   Haze
10:15 AM 7.5 °F -12.9 °F 0.1 °F 72% 30.37 in 5.0 mi NW 21.9 mph 27.6 mph N/A   Haze
10:35 AM 7.7 °F -13.1 °F -1.3 °F 67% 30.37 in 7.0 mi NW 23.0 mph 26.5 mph N/A   Overcast
10:55 AM 8.6 °F -12.7 °F -1.3 °F 64% 30.37 in 10.0 mi WNW 25.3 mph 29.9 mph N/A   Mostly Cloudy
11:15 AM 9.1 °F -10.7 °F -2.6 °F 59% 30.38 in 10.0 mi WNW 21.9 mph 26.5 mph N/A   Mostly Cloudy
11:35 AM 9.3 °F -9.6 °F -2.6 °F 59% 30.38 in 10.0 mi WNW 19.6 mph 26.5 mph N/A   Scattered Clouds
11:55 AM 9.9 °F -9.8 °F -3.1 °F 56% 30.37 in 10.0 mi WNW 21.9 mph 27.6 mph N/A   Clear
12:15 PM 10.0 °F -8.6 °F -3.1 °F 55% 30.36 in 10.0 mi NW 19.6 mph 27.6 mph N/A   Clear
12:35 PM 10.4 °F -9.5 °F -3.3 °F 54% 30.35 in 10.0 mi WNW 23.0 mph 26.5 mph N/A   Clear
12:55 PM 10.4 °F -9.5 °F -4.0 °F 52% 30.35 in 10.0 mi WNW 23.0 mph 27.6 mph N/A   Clear
1:15 PM 10.4 °F -7.2 °F -4.9 °F 50% 30.35 in 10.0 mi NW 17.3 mph 26.5 mph N/A   Clear
1:35 PM 10.4 °F -9.1 °F -4.7 °F 51% 30.35 in 10.0 mi NW 21.9 mph 27.6 mph N/A   Clear
1:55 PM 11.5 °F -5.2 °F -3.3 °F 52% 30.34 in 10.0 mi WNW 16.1 mph 23.0 mph N/A   Clear
2:15 PM 11.5 °F -6.3 °F -3.5 °F 51% 30.34 in 10.0 mi WNW 18.4 mph - N/A   Clear
2:35 PM 11.5 °F -6.7 °F -4.2 °F 50% 30.35 in 10.0 mi WNW 19.6 mph 25.3 mph N/A   Clear
2:55 PM 12.0 °F -4.0 °F -3.5 °F 50% 30.35 in 10.0 mi WNW 15.0 mph 20.7 mph N/A   Clear
3:15 PM 11.8 °F -5.8 °F -3.8 °F 50% 30.36 in 10.0 mi WNW 18.4 mph 25.3 mph N/A   Clear
3:35 PM 10.9 °F -6.5 °F -3.5 °F 52% 30.35 in 10.0 mi West 17.3 mph 20.7 mph N/A   Clear
3:55 PM 10.2 °F -6.3 °F -4.2 °F 52% 30.35 in 10.0 mi WNW 15.0 mph - N/A   Clear
4:15 PM 9.9 °F -7.9 °F -4.0 °F 54% 30.35 in 10.0 mi WNW 17.3 mph - N/A   Clear
4:35 PM 9.5 °F -7.8 °F -4.0 °F 54% 30.35 in 10.0 mi WNW 16.1 mph - N/A   Clear
4:55 PM 10.0 °F -6.5 °F -3.1 °F 55% 30.35 in 10.0 mi WNW 15.0 mph 19.6 mph N/A   Scattered Clouds
5:15 PM 9.3 °F -6.8 °F -3.1 °F 57% 30.35 in 10.0 mi NW 13.8 mph - N/A   Scattered Clouds
5:35 PM 8.6 °F -6.3 °F -2.2 °F 62% 30.36 in 10.0 mi NW 11.5 mph - N/A   Clear
5:55 PM 8.6 °F -5.5 °F -1.3 °F 64% 30.36 in 10.0 mi NW 10.4 mph - N/A   Clear
6:15 PM 8.6 °F -6.3 °F -1.3 °F 64% 30.36 in 10.0 mi WNW 11.5 mph - N/A   Clear
6:35 PM 8.6 °F -8.3 °F -4.0 °F 57% 30.37 in 10.0 mi WNW 15.0 mph - N/A   Clear
6:55 PM 8.1 °F -7.0 °F -2.9 °F 61% 30.36 in 10.0 mi WNW 11.5 mph - N/A   Clear
7:15 PM 7.7 °F -6.6 °F -2.4 °F 63% 30.37 in 10.0 mi WNW 10.4 mph - N/A   Clear
7:35 PM 7.3 °F -6.2 °F -2.2 °F 65% 30.37 in 10.0 mi WNW 9.2 mph - N/A   Clear
7:55 PM 6.8 °F -7.8 °F -1.5 °F 69% 30.37 in 10.0 mi WNW 10.4 mph - N/A   Clear
8:15 PM 6.6 °F -7.1 °F -1.3 °F 70% 30.37 in 10.0 mi WNW 9.2 mph - N/A   Clear
8:35 PM 6.4 °F -6.3 °F -0.8 °F 72% 30.38 in 10.0 mi WNW 8.1 mph - N/A   Clear
8:55 PM 5.9 °F -8.0 °F -0.6 °F 75% 30.38 in 10.0 mi WNW 9.2 mph - N/A   Clear
9:15 PM 5.5 °F -7.4 °F -0.6 °F 76% 30.38 in 10.0 mi WNW 8.1 mph - N/A   Clear
9:35 PM 5.0 °F -6.9 °F -0.4 °F 78% 30.38 in 10.0 mi NW 6.9 mph - N/A   Clear
9:55 PM 4.8 °F -7.1 °F -0.4 °F 79% 30.38 in 10.0 mi NW 6.9 mph - N/A   Clear
10:15 PM 5.4 °F -8.6 °F -0.4 °F 77% 30.38 in 10.0 mi NW 9.2 mph - N/A   Clear
10:35 PM 5.0 °F -10.0 °F -0.6 °F 78% 30.38 in 10.0 mi WNW 10.4 mph - N/A   Clear
10:55 PM 5.0 °F -9.1 °F -0.6 °F 78% 30.39 in 10.0 mi WNW 9.2 mph - N/A   Clear
11:15 PM 4.6 °F -8.5 °F -0.8 °F 78% 30.39 in 10.0 mi WNW 8.1 mph - N/A   Clear
11:35 PM 5.2 °F -9.8 °F -0.6 °F 77% 30.39 in 10.0 mi WNW 10.4 mph - N/A   Clear
11:55 PM 5.0 °F -8.1 °F -0.8 °F 77% 30.38 in 10.0 mi NW 8.1 mph - N/A   Clear